Location: Unspecified
(0.0000°N, 0.0000°E)
Time: 07:16:11
(UTC+00:00)

STARLINK-2738 - Pass Details

Date: 12 June 2021
Orbit: 349 x 350 km, 53.0° (Epoch: 20 June)

Event Time Altitude Azimuth Distance (km) Brightness Sun altitude
Exits shadow 04:36:35 - 155° (SSE) 1,385 5.7 -19.1°
Reaches altitude 10° 04:37:02 10° 147° (SSE) 1,303 5.6 -19.0°
Maximum altitude 04:38:08 12° 125° (SE) 1,212 5.8 -18.7°
Drops below altitude 10° 04:39:14 10° 102° (ESE) 1,300 6.3 -18.5°
Sets 04:42:15 0° 67° (ENE) 2,138 8.4 -17.8°
